Theta_e
315 315 316 316 316 317 317 318 319 318 314 315 315 315 315 311 309 309 309 307 305 305 302 302 303 305 306 307 310 310 312 311 312 310 308 305 302 303 304 303 305 306 306 306
315 316 316 317 318 318 317 317 318 318 314 314 314 315 314 313 310 310 310 308 306 302 300 302 304 305 305 306 308 309 310 309 308 306 303 301 299 298 297 297 297 298 299 299
318 318 317 317 317 318 317 318 318 318 317 313 313 314 314 314 313 310 309 308 306 302 301 301 304 304 303 304 306 307 307 307 305 303 302 299 296 294 293 292 292 292 293 293
317 317 317 316 317 316 318 317 316 316 317 317 314 319 319 317 315 311 309 307 304 302 301 301 303 304 303 302 302 303 303 304 302 302 300 297 295 292 291 290 290 290 290 289
318 314 316 316 317 316 316 315 315 316 315 315 316 318 318 316 318 311 308 305 303 302 301 300 301 301 299 300 300 300 301 301 301 300 298 297 294 291 290 289 288 288 288 288
315 313 314 315 314 314 314 315 315 315 316 319 318 320 320 320 317 313 308 306 303 301 299 299 298 297 296 297 297 297 297 297 298 298 296 295 292 291 289 289 288 288 287 287
316 314 314 313 313 312 315 316 321 322 320 322 318 319 321 318 314 313 309 306 303 301 299 296 294 295 295 295 294 294 294 294 294 294 293 293 292 291 290 289 288 287 286 286
319 321 315 313 315 317 314 316 321 323 325 323 313 317 318 309 307 308 308 306 303 301 298 295 294 294 294 294 293 293 293 292 293 293 292 292 291 290 290 289 288 287 286 286
320 322 315 313 314 315 316 316 316 320 308 315 319 316 314 309 307 307 306 304 303 300 298 295 294 294 293 293 292 292 292 291 291 291 291 290 290 290 289 288 287 287 286 285
319 324 314 308 311 312 315 315 318 318 325 326 322 319 318 311 309 306 306 304 303 300 298 296 294 293 293 292 291 291 291 290 290 290 290 289 289 289 288 287 287 286 285 285
317 320 312 310 311 315 312 314 316 318 318 327 322 322 315 316 310 307 306 304 303 300 298 296 294 293 292 292 291 291 290 290 289 289 289 289 288 288 287 287 286 286 285 285
316 321 319 314 311 311 314 316 316 321 322 318 321 323 310 309 310 307 306 304 303 300 298 296 295 293 292 291 291 290 290 289 289 289 289 288 288 287 287 286 286 285 285 285
318 320 325 324 314 310 312 313 315 317 316 320 319 321 307 307 309 306 305 304 302 301 298 296 294 293 291 290 290 290 289 289 289 289 288 288 287 287 287 286 286 285 285 285
317 317 320 325 322 313 312 312 313 315 319 319 320 319 311 308 308 307 305 303 302 301 299 297 295 293 292 290 289 289 289 289 289 288 288 288 287 287 287 286 286 285 285 284
318 318 318 319 319 319 314 313 313 314 316 318 318 318 317 311 307 307 306 303 302 301 300 297 296 294 292 291 289 289 289 289 288 288 288 288 287 287 286 286 285 285 284 284
314 317 316 319 316 317 320 318 315 312 314 315 316 316 315 313 307 305 306 305 303 302 301 299 297 296 293 291 290 289 288 288 288 288 288 288 287 286 286 286 285 285 284 283
312 313 315 320 315 317 319 319 319 319 313 313 315 314 308 309 307 305 305 304 304 303 302 300 298 297 295 292 290 289 289 288 288 288 288 287 287 286 286 286 285 284 283 282
309 311 314 319 316 322 316 308 316 318 318 316 312 312 307 309 307 305 305 304 302 301 301 300 299 298 296 294 291 290 289 289 288 288 287 287 287 286 286 285 285 284 283 283
308 310 315 317 318 314 312 304 307 312 316 314 315 314 304 303 306 306 303 303 301 300 299 300 299 298 296 295 292 290 290 289 288 287 287 287 287 286 286 285 285 284 283 282
303 304 312 314 317 318 309 299 301 307 312 306 309 309 301 304 311 310 300 299 300 299 300 299 298 297 295 294 293 292 290 289 287 287 287 287 286 286 286 286 285 284 283 283
302 304 308 313 314 313 308 297 300 309 310 297 300 301 301 307 306 302 296 296 295 295 295 296 296 294 294 294 293 291 289 288 289 288 287 286 286 286 286 285 284 284 283 281
307 308 307 309 313 314 295 296 307 300 294 296 302 299 298 294 293 292 291 290 289 289 291 292 291 291 292 292 291 289 289 289 288 287 287 286 286 285 285 284 283 282 281 279
310 309 311 310 310 294 294 294 294 293 295 294 300 297 294 291 291 289 289 288 287 288 288 290 290 289 289 289 290 289 289 288 288 287 286 286 285 284 283 283 282 280 279 277
298 294 301 302 298 296 293 297 296 294 292 292 293 295 293 291 289 288 287 287 287 287 287 288 288 287 287 288 288 289 288 287 287 286 285 284 283 283 281 280 279 279 277 276
296 295 297 295 294 294 296 295 296 297 291 289 289 291 290 289 288 288 287 286 286 287 287 288 288 288 287 286 286 286 286 286 285 284 283 282 281 280 279 278 278 277 276 276
291 294 299 300 296 299 299 297 297 295 291 290 289 289 289 288 288 287 286 287 287 286 286 287 287 287 286 285 284 284 284 284 284 283 281 280 279 277 276 275 275 274 274 274
Wind_Speed
5 4 9 14 12 12 9 9 7 9 4 5 10 12 11 13 9 10 10 10 9 8 10 8 7 7 9 10 12 15 19 21 25 26 26 25 24 22 22 20 18 18 17 16
2 10 14 8 10 8 9 11 11 8 6 4 8 12 11 11 14 18 13 10 10 9 8 11 11 12 11 13 14 19 22 16 12 17 18 20 24 23 23 23 22 21 20 20
10 4 12 12 7 4 9 10 8 8 4 6 6 10 14 11 12 11 9 8 9 12 10 9 14 15 14 15 16 16 14 14 15 17 21 25 26 25 25 25 26 23 23 23
12 14 11 6 12 9 9 9 11 10 4 5 7 8 4 8 13 14 10 8 9 10 9 10 15 17 16 15 15 15 15 16 16 19 25 24 24 25 23 24 24 24 23 23
6 8 9 13 8 9 5 4 3 3 6 6 7 9 4 10 18 17 15 11 10 10 12 11 16 19 16 16 16 16 17 19 18 20 24 26 29 27 26 24 25 23 22 21
8 3 3 5 2 5 8 5 2 1 1 7 11 12 6 12 16 7 11 14 12 12 11 13 20 22 19 18 18 18 19 20 21 22 23 28 30 29 27 23 22 20 20 19
7 12 4 4 5 5 6 6 2 3 3 7 4 10 18 3 2 8 17 17 15 15 13 12 14 19 21 21 22 22 22 21 21 22 24 25 26 25 25 22 21 19 18 17
9 5 20 11 13 8 11 9 5 7 5 4 2 8 6 3 5 5 16 18 16 17 15 14 17 20 23 24 24 23 25 25 24 25 25 24 24 24 22 22 20 19 17 16
5 7 4 10 6 9 6 9 11 4 2 2 6 8 7 5 3 1 13 17 18 18 15 15 19 21 23 25 24 25 26 25 26 26 27 25 24 24 23 21 19 17 16 14
4 4 3 2 5 4 2 4 3 3 4 6 6 10 11 7 11 8 14 19 18 17 15 14 18 22 26 26 25 24 24 26 26 25 25 24 22 22 22 21 19 17 15 13
4 4 1 4 6 11 4 4 5 5 4 3 4 8 3 17 14 18 16 18 20 20 18 16 19 22 27 27 27 26 26 26 25 25 24 24 22 22 20 20 18 17 15 12
5 2 5 9 8 10 10 9 13 5 7 8 6 17 4 6 10 15 15 17 17 18 17 15 20 23 26 28 29 28 28 28 28 27 26 26 25 23 21 19 17 16 15 12
9 4 4 3 1 2 7 12 16 19 2 17 5 12 4 6 6 10 14 15 16 17 17 16 18 21 25 26 28 30 29 29 29 28 27 26 26 23 21 20 19 17 15 13
9 5 9 14 4 6 6 14 18 16 11 19 20 23 3 3 5 7 11 14 16 18 19 17 16 22 26 27 29 31 32 32 32 30 29 28 26 25 23 21 20 19 17 15
10 9 11 23 21 11 6 6 20 23 33 14 30 22 23 10 12 14 11 11 15 18 19 18 17 16 24 26 28 29 31 34 34 32 31 30 27 25 24 23 22 20 18 16
5 6 11 23 22 16 19 13 19 26 29 27 30 27 4 9 10 8 10 14 16 16 19 19 17 20 25 29 31 31 32 36 35 34 33 30 29 28 26 25 23 22 20 19
10 7 6 16 7 11 12 30 25 22 26 22 25 38 5 4 9 10 9 12 15 16 18 18 18 21 27 31 32 32 33 36 36 35 33 32 31 31 30 28 26 24 23 20
6 9 4 6 4 10 6 2 24 26 29 26 27 21 6 8 6 7 14 16 12 9 10 11 14 20 26 29 32 32 34 35 37 35 34 34 34 33 32 30 28 27 25 23
7 8 5 5 7 6 8 4 7 9 22 20 24 22 7 7 5 5 4 6 8 9 7 12 22 23 27 31 33 33 33 34 36 36 37 36 35 35 34 32 31 29 27 24
5 0 6 4 5 7 3 5 3 6 12 11 17 15 10 8 7 9 9 8 8 12 16 20 25 26 31 32 36 34 34 34 35 35 36 36 36 36 36 34 33 30 28 27
4 3 10 9 5 5 4 5 2 6 7 4 2 5 13 10 5 5 9 6 7 13 16 22 26 26 29 29 31 31 31 33 34 31 30 30 33 35 33 33 31 30 28 26
6 8 4 4 5 8 5 3 8 3 4 3 2 3 3 4 5 6 7 8 9 9 16 21 22 21 22 25 28 28 29 28 24 23 24 26 27 29 30 29 28 27 26 26
5 7 4 6 4 2 2 1 1 0 1 4 2 2 5 6 4 6 7 8 8 14 18 22 24 22 21 23 25 24 21 18 18 19 22 24 24 24 23 24 25 25 25 26
3 3 2 3 1 2 3 3 4 2 2 1 2 3 5 5 7 6 6 7 7 13 16 19 21 19 18 18 18 14 16 17 19 21 20 20 19 19 20 20 22 24 26 26
2 5 4 1 2 2 6 6 6 3 2 5 5 3 5 8 4 6 6 6 7 13 16 19 19 17 15 15 15 13 14 16 17 16 15 16 16 18 18 19 20 22 23 23
5 5 4 3 6 4 5 9 6 4 0 2 3 2 3 5 7 5 6 8 13 14 14 14 12 10 10 12 13 12 11 12 13 14 15 15 14 14 14 14 15 13 13 13
Wind_Direction
207 204 209 213 211 243 279 298 283 291 133 185 228 246 235 197 210 215 212 188 182 182 135 155 160 155 126 121 131 137 136 132 127 124 119 116 106 108 104 103 106 106 106 105
116 230 235 236 242 229 242 256 264 283 147 182 265 262 262 193 209 207 205 191 175 139 151 167 164 149 142 136 137 132 126 119 116 126 122 124 120 108 104 101 97 98 99 98
203 190 213 226 245 226 246 241 253 246 256 211 273 268 246 251 215 199 210 189 170 157 163 167 162 153 149 144 145 145 136 138 143 146 136 123 114 108 108 104 102 97 99 98
233 237 254 222 223 183 243 223 237 253 273 248 148 281 258 259 234 194 192 189 163 155 150 161 166 156 148 144 145 141 143 149 145 142 133 128 130 121 117 111 109 105 101 98
212 178 208 208 200 183 218 56 353 205 257 288 269 284 240 214 249 212 199 184 173 161 156 159 161 151 151 156 149 154 153 147 148 155 152 146 131 128 125 117 109 102 99 95
245 82 227 199 132 210 121 92 91 90 228 255 212 219 249 227 232 210 187 183 174 158 150 155 147 146 149 154 155 153 151 151 155 155 151 143 137 134 127 123 114 107 102 99
220 228 189 142 103 5 159 137 229 264 199 240 162 220 241 287 126 195 184 181 175 160 159 154 153 157 159 158 158 155 151 146 148 146 144 142 138 137 130 126 123 121 115 107
194 242 188 177 206 174 188 184 168 227 215 281 329 239 247 329 28 335 170 170 167 167 165 163 167 163 163 164 161 159 155 147 146 143 140 140 138 136 136 137 136 130 124 115
202 233 66 153 197 190 182 217 228 339 109 349 220 261 277 181 209 356 156 168 174 170 168 165 168 165 167 169 165 160 157 153 151 148 146 147 148 147 143 141 140 136 130 125
243 244 9 75 78 330 179 170 125 150 224 233 261 251 239 232 217 201 180 179 176 170 169 171 171 167 170 170 166 166 164 160 158 155 154 151 149 148 147 146 143 142 141 138
189 174 167 109 195 178 145 215 219 181 189 228 303 256 260 226 196 192 194 184 180 176 174 173 173 171 170 170 168 168 169 164 160 160 157 154 153 153 154 153 152 152 151 149
195 33 220 203 201 212 206 191 198 189 224 229 242 264 18 348 185 179 188 184 181 179 177 175 173 168 167 170 172 172 173 172 169 168 166 162 161 164 162 159 160 164 162 163
158 186 232 261 82 57 210 219 214 222 109 236 171 261 343 1 136 176 177 179 179 176 176 175 172 173 173 173 173 177 177 179 176 176 172 171 169 168 168 171 174 174 175 178
102 172 214 228 148 128 193 204 214 208 221 239 227 248 259 249 232 182 185 182 178 180 180 180 181 181 177 174 175 179 181 185 182 183 180 178 177 178 179 182 184 184 188 192
156 219 211 247 258 276 199 196 211 209 227 213 246 234 241 218 203 210 186 171 180 184 188 187 185 183 178 177 178 179 182 187 187 187 187 187 185 184 187 191 192 191 197 204
177 232 215 254 248 249 259 226 224 226 230 234 252 257 195 250 198 154 175 176 189 190 190 191 187 180 183 183 184 181 181 188 189 194 193 190 190 191 194 197 199 201 205 212
171 192 192 249 203 238 257 238 231 228 234 228 239 247 140 134 156 180 181 177 191 195 193 190 191 190 188 186 182 182 182 188 192 195 196 194 196 197 199 202 205 209 213 217
168 193 205 250 116 223 246 24 216 222 238 232 245 249 168 223 205 182 175 174 183 184 187 189 187 190 187 185 184 182 184 190 194 195 196 199 200 202 202 206 210 214 218 224
183 181 222 219 219 312 304 193 150 169 246 233 241 252 173 140 117 232 163 153 160 170 174 174 189 185 177 183 181 181 188 192 194 198 203 204 204 205 205 209 215 219 222 228
147 334 207 174 217 210 226 261 286 99 273 201 209 218 153 137 194 214 157 140 156 152 165 175 178 175 176 182 185 186 187 190 195 203 209 210 209 211 213 216 219 224 228 236
146 175 222 228 236 276 212 191 250 125 264 304 320 169 161 193 215 137 147 134 130 140 142 156 163 161 175 178 184 183 187 196 209 212 213 214 215 217 221 223 225 228 231 233
162 175 189 196 225 241 166 54 170 240 325 291 62 124 115 85 84 106 107 115 127 130 140 156 151 159 169 176 181 185 195 204 207 209 211 213 217 220 222 224 226 228 229 231
201 192 193 195 209 303 290 259 341 115 299 340 56 83 118 118 122 122 130 133 135 139 142 152 150 151 165 176 184 184 193 194 194 195 201 205 207 213 218 220 222 222 224 228
239 167 177 133 156 271 264 280 242 200 147 21 32 141 139 138 141 128 123 126 131 140 143 147 149 154 163 177 186 194 185 185 188 190 194 199 205 211 218 221 224 226 226 228
174 139 136 359 298 274 259 246 248 266 79 45 45 76 132 132 118 130 131 137 142 147 151 157 161 170 173 176 182 184 181 187 189 193 199 205 212 218 222 227 230 233 240 245
185 163 176 209 183 181 228 219 231 246 242 125 114 92 74 132 144 134 140 151 152 157 156 160 167 166 157 163 172 184 195 201 201 199 204 211 215 217 225 231 235 235 249 251